Location: Laguna de la Cañada del Gallo
(40.3974°N, 5.2096°W)
Time: 02:24:35
(UTC+00:00)

Celestis-02/Orion 38 - Pass Details

Date: 18 April 2024
Orbit: 773 x 864 km, 108.0° (Epoch: 25 May)

Event Time Altitude Azimuth Distance (km) Brightness Sun altitude
Exits shadow 21:30:07 70° 178° (S) 823 4.4 -25.1°
Maximum altitude 21:30:41 82° 243° (WSW) 786 4.4 -25.2°
Drops below altitude 10° 21:35:46 10° 332° (NNW) 2,332 7.9 -25.9°
Sets 21:38:04 0° 334° (NNW) 3,269 8.9 -26.2°
